EHI
0 0 0 0 0 0 0 1 1 1 0 0 0 0 0 0 0 0 0 0 0 0 0 0 0 0 1 2 2 1 0 0 0 0 0 0 0 0 0 0 0 0 0
0 0 0 0 0 0 1 2 2 2 1 0 0 0 0 0 0 0 0 0 0 0 0 0 0 0 1 2 1 0 0 0 0 0 0 0 0 0 0 0 0 0 0
0 0 0 0 0 0 1 2 3 3 2 0 0 0 0 0 0 0 0 0 0 0 0 0 0 0 1 1 0 0 0 0 0 0 0 0 0 0 0 0 0 0 0
0 0 0 0 0 0 0 1 2 2 1 0 0 0 0 0 0 0 0 0 0 0 0 0 0 0 0 1 0 0 0 0 0 0 0 0 0 0 0 0 0 0 0
0 0 0 0 0 0 0 0 1 1 0 0 0 0 0 0 0 0 0 0 0 0 0 0 0 0 0 0 0 0 0 0 0 0 0 0 0 0 0 0 0 0 0
0 0 0 0 0 0 0 0 0 0 0 0 0 0 0 0 0 0 0 0 0 0 0 0 0 0 0 0 0 0 0 0 0 0 0 0 0 0 0 0 0 0 0
0 0 0 0 0 0 0 0 0 0 0 0 0 0 0 0 0 0 0 0 0 0 0 0 0 0 0 0 0 0 0 0 0 0 0 0 0 0 0 0 0 0 0
0 0 0 0 0 0 0 0 0 0 0 0 0 0 0 0 0 0 0 0 0 0 0 0 0 0 0 0 0 0 0 0 0 0 0 0 0 0 0 0 0 0 0
0 0 0 0 0 0 0 0 0 0 0 0 0 0 0 0 0 0 0 0 0 0 0 0 0 0 0 0 0 0 0 0 0 0 0 0 0 0 0 0 0 0 0
0 0 0 0 0 0 0 0 0 0 0 0 0 0 0 0 0 0 0 0 0 0 0 0 0 0 0 0 0 0 0 0 0 0 0 0 0 0 0 0 0 0 0
0 0 0 0 0 0 0 0 0 0 0 0 0 0 0 0 0 0 0 0 0 0 0 0 0 0 0 0 0 0 0 0 0 0 0 0 0 0 0 0 0 0 0
0 0 0 0 0 0 0 0 0 0 0 0 0 0 0 0 0 0 0 0 0 0 0 0 0 0 0 0 0 0 0 0 0 0 0 0 0 1 0 0 0 0 0
0 0 0 0 0 0 0 0 0 0 0 0 0 0 0 0 0 0 0 0 0 0 0 0 0 0 0 0 0 0 0 0 0 0 0 0 0 0 0 0 0 0 0
0 0 0 0 0 0 0 0 0 0 0 0 0 0 0 0 0 0 0 0 0 0 0 0 0 0 0 0 0 0 0 0 0 0 0 0 0 0 0 0 0 0 0
0 0 0 0 0 0 0 0 0 0 0 0 0 0 0 0 0 0 0 0 0 0 0 0 0 0 0 0 0 0 0 0 0 0 0 0 0 0 0 0 0 0 0
0 0 0 0 0 0 0 0 0 0 0 0 0 0 0 0 0 0 0 0 0 0 0 0 0 0 0 0 0 0 0 0 0 0 0 0 0 0 0 0 0 0 0
0 0 0 0 0 0 0 0 0 0 0 0 0 0 0 0 0 0 0 0 0 0 0 0 0 0 0 0 0 0 0 0 0 0 0 0 0 0 0 0 0 0 0
0 0 0 0 0 0 0 0 0 0 0 0 0 0 0 0 0 0 0 0 0 0 0 0 0 0 0 0 0 0 0 0 0 0 0 0 0 0 0 0 0 0 0
0 0 0 0 0 0 0 0 0 0 0 0 0 0 0 0 0 0 0 0 0 0 0 0 0 0 0 0 0 0 0 0 0 0 0 0 0 0 0 0 0 0 0
0 0 0 0 0 0 0 0 0 0 0 0 0 0 0 0 0 0 0 0 0 0 0 0 0 0 0 0 0 0 0 0 0 0 0 0 0 0 0 0 0 0 0
0 0 0 0 0 0 0 0 0 0 0 0 0 0 0 0 0 0 0 0 0 0 0 0 0 0 0 0 0 0 0 0 0 0 0 0 0 0 0 0 0 0 0
0 0 0 0 0 0 0 0 0 0 0 0 0 0 0 0 0 0 0 0 0 0 0 0 0 0 0 0 0 0 0 0 0 0 0 0 0 0 0 0 0 0 0
0 0 0 0 0 0 0 0 0 0 0 0 0 0 0 0 0 0 0 0 0 0 0 0 0 0 0 0 0 0 0 0 0 0 0 0 0 0 0 0 0 0 0
0 0 0 0 0 0 0 0 0 0 0 0 0 0 0 0 0 0 0 0 0 0 0 0 0 0 0 0 0 0 0 0 0 0 0 0 0 0 0 0 0 0 0
0 0 0 0 0 0 0 0 0 0 0 0 0 0 0 0 0 0 0 0 0 0 0 0 0 0 0 0 0 0 0 0 0 0 0 0 0 0 0 0 0 0 0
0 0 0 0 0 0 0 0 0 0 0 0 0 0 0 0 0 0 0 0 0 0 0 0 0 0 0 0 0 0 0 0 0 0 0 0 0 0 0 0 0 0 0
Wind_Speed
0 0 0 0 1 1 0 1 1 2 2 2 2 2 2 3 3 2 3 6 8 8 9 8 8 8 8 7 7 7 7 7 7 8 8 8 8 8 8 9 9 10 10
1 1 0 1 1 1 1 1 2 2 2 2 2 3 3 3 3 3 3 4 7 8 9 9 8 8 8 8 8 8 8 8 8 8 8 8 9 9 9 9 10 10 10
1 1 1 1 1 1 1 1 1 1 1 2 2 3 3 3 3 4 3 3 3 5 7 8 9 9 9 9 9 9 9 9 9 9 9 9 9 9 10 10 10 11 11
1 1 1 1 2 1 1 0 1 1 1 2 2 3 3 3 4 4 3 3 2 3 4 7 8 9 10 10 10 10 10 10 10 9 9 9 9 10 10 11 11 11 12
1 1 1 1 1 1 1 1 1 1 1 2 3 3 3 3 3 3 3 3 3 3 3 5 7 9 10 10 11 11 11 10 10 9 10 10 10 10 11 11 12 12 12
1 1 1 1 1 1 1 1 1 1 1 2 3 3 3 4 3 3 3 3 2 3 3 3 3 5 8 10 11 11 11 11 10 10 11 11 11 11 11 12 12 12 12
1 1 1 1 1 2 2 1 1 1 1 1 1 3 3 3 2 2 2 2 2 3 3 3 3 2 3 7 9 10 11 12 11 11 10 10 11 11 11 11 11 12 12
2 1 1 1 2 2 2 2 1 1 1 0 0 1 3 3 2 2 2 2 2 2 3 3 3 3 3 2 5 9 11 12 12 12 11 11 11 12 12 12 12 12 13
2 2 2 1 2 2 2 3 2 2 2 1 1 1 1 2 3 3 2 2 2 2 3 3 3 3 3 2 3 6 10 12 12 13 13 12 11 12 12 12 13 13 14
2 2 2 2 1 2 2 3 2 2 2 2 1 1 2 2 2 3 2 2 3 3 3 3 3 3 3 3 4 7 9 11 12 13 13 13 13 12 12 13 13 14 14
2 2 2 2 2 2 2 3 3 2 2 3 2 1 1 1 2 3 4 3 3 2 3 3 3 3 3 3 3 5 9 10 11 12 12 13 13 13 13 13 13 13 14
2 2 2 2 2 2 3 3 3 3 3 3 2 2 2 2 2 2 4 4 4 3 3 3 3 3 3 3 5 7 8 9 10 11 11 11 12 12 12 13 13 14 14
2 2 2 2 2 3 3 3 3 3 4 4 3 3 2 3 2 2 3 4 5 4 3 3 3 2 3 3 4 8 8 9 10 10 10 10 11 12 12 13 13 13 14
3 3 3 2 3 3 3 2 3 3 3 3 4 3 2 3 2 2 3 3 4 4 3 4 2 3 3 3 5 7 5 9 10 10 10 10 10 11 12 13 13 13 14
2 2 2 3 3 3 3 2 2 3 3 3 3 3 3 3 3 3 3 3 3 5 5 3 2 3 3 3 5 4 4 8 10 11 11 10 10 11 11 12 12 13 13
2 2 3 3 3 3 3 2 2 3 3 3 3 3 3 3 3 3 3 3 3 4 5 3 3 3 3 4 7 5 4 9 10 11 11 11 11 11 11 11 11 13 13
2 3 3 3 3 3 3 2 3 2 3 3 3 3 4 3 3 2 3 3 3 3 6 5 3 3 3 4 4 4 4 4 5 10 12 12 11 10 11 11 11 12 13
2 2 3 3 3 2 2 2 3 3 3 3 3 3 4 3 3 3 3 3 4 4 5 6 4 3 4 4 4 4 5 5 4 9 11 12 11 10 11 11 11 12 12
2 2 2 2 2 2 2 2 3 3 3 4 3 4 4 3 3 3 3 3 3 3 3 4 4 3 3 3 4 4 5 4 5 7 9 10 10 11 10 11 11 11 11
2 2 2 2 2 2 2 3 3 3 3 3 3 3 3 3 4 4 3 3 3 3 2 3 4 3 3 3 3 3 4 3 4 5 6 7 9 10 10 11 11 11 10
2 2 2 2 2 2 2 2 2 2 2 3 3 3 3 4 5 4 3 3 3 3 3 3 3 3 3 2 3 3 4 4 4 3 4 4 5 4 5 8 10 10 10
2 2 2 2 2 3 4 5 3 2 2 2 3 3 3 4 5 6 6 6 5 4 4 3 3 4 5 4 3 3 3 4 4 2 3 5 3 4 4 3 7 9 9
1 1 2 2 3 3 5 5 4 2 2 2 2 2 3 3 5 3 5 6 6 6 6 5 5 5 5 4 4 4 4 4 5 4 4 5 4 4 4 5 8 8 7
1 1 2 2 3 4 5 5 5 2 2 3 3 3 3 3 3 3 2 3 3 4 5 4 4 4 5 5 4 4 4 4 4 3 2 4 3 4 5 4 7 6 6
1 1 2 2 2 4 5 5 4 1 2 3 3 3 3 3 5 5 3 3 4 3 4 5 5 5 6 6 4 2 2 3 4 4 2 2 3 4 3 3 4 5 5
1 2 2 2 2 3 4 5 4 1 2 2 3 3 5 5 6 5 2 2 3 3 3 3 4 5 4 4 5 3 3 3 3 3 2 1 2 2 3 2 2 3 3
Wind_Direction
138 62 319 320 313 305 302 309 291 282 277 269 263 257 254 251 248 252 268 268 267 264 264 265 264 267 268 270 272 275 277 279 281 281 280 278 276 278 278 278 278 271 268
177 197 245 284 286 269 263 265 277 271 269 272 273 270 263 258 251 251 252 266 270 269 264 264 266 268 270 272 273 274 276 277 276 277 277 279 275 274 276 276 276 277 272
197 212 223 263 277 275 275 290 303 291 292 290 282 281 273 266 261 256 254 251 259 269 272 267 269 270 272 272 274 276 277 278 276 276 275 277 278 276 274 276 277 276 272
207 219 226 251 276 273 254 258 284 293 292 290 287 282 279 272 267 262 258 253 249 255 267 272 273 273 274 275 277 279 278 278 278 277 278 277 277 279 279 277 277 276 274
209 214 234 246 266 270 243 267 300 262 272 290 286 282 279 274 265 266 262 253 249 250 248 268 274 274 275 277 280 281 281 280 277 277 278 276 277 279 277 277 278 276 276
212 218 230 247 254 255 252 230 255 286 260 277 295 298 284 274 260 255 259 259 254 254 252 255 259 273 276 277 279 281 282 281 279 278 277 277 277 278 278 277 277 278 276
215 221 235 238 243 238 238 228 230 266 281 291 326 319 308 283 259 249 258 260 266 270 261 255 252 252 273 279 281 282 281 282 281 280 280 282 281 279 277 278 279 279 280
229 231 219 232 237 238 246 232 213 230 272 255 119 334 323 320 315 301 282 258 268 285 284 284 264 257 260 263 280 283 281 281 281 281 280 281 283 283 278 278 279 280 280
231 239 228 232 248 230 230 230 220 218 231 256 193 173 217 265 308 298 296 289 289 296 295 301 290 284 276 269 271 281 284 282 280 280 281 281 281 281 283 283 284 283 281
237 241 230 224 239 245 241 236 235 238 212 233 247 226 221 218 257 298 295 291 297 294 289 294 290 281 281 278 278 287 290 286 280 279 280 280 279 279 281 284 285 286 286
246 246 234 224 231 239 247 245 239 241 228 226 227 231 246 255 232 246 278 287 296 284 283 283 280 280 283 280 276 287 294 292 287 283 284 284 281 280 281 282 285 285 286
265 261 252 236 238 241 240 242 232 229 235 234 233 224 221 227 232 238 265 284 290 291 290 285 272 272 281 277 281 296 298 299 297 295 293 291 290 289 287 287 286 285 285
259 268 275 252 244 241 240 241 230 229 231 228 229 234 231 241 243 246 264 282 290 293 285 279 265 270 287 282 282 298 298 299 298 295 296 295 296 296 296 294 292 289 288
250 256 257 260 260 249 245 242 239 237 236 233 241 238 240 247 243 243 243 263 289 288 276 273 283 273 284 291 292 302 298 303 301 298 296 295 296 295 296 295 293 293 291
262 263 262 264 266 264 252 238 242 241 238 240 239 240 242 248 242 242 242 232 245 278 284 268 277 283 293 299 303 302 294 300 302 303 300 297 294 292 294 291 290 291 289
271 272 270 269 269 268 266 250 247 245 240 247 243 243 247 248 247 242 242 244 240 250 271 269 269 283 293 304 308 305 295 302 300 301 301 296 294 294 296 289 288 288 287
266 267 271 273 269 265 268 262 253 253 247 255 254 250 254 253 248 251 251 249 249 244 264 279 276 279 283 291 301 300 298 291 291 299 301 296 293 294 297 293 288 288 286
266 268 271 271 275 275 267 259 266 266 254 257 258 256 258 258 255 252 248 250 251 247 255 275 283 283 281 282 289 294 300 299 291 298 299 299 294 294 294 297 294 288 288
289 283 275 274 279 278 272 260 257 265 266 260 261 261 262 256 259 261 257 255 257 264 256 266 281 286 285 289 299 299 297 296 296 301 302 302 299 297 298 299 301 295 295
292 290 285 282 279 278 272 263 260 265 274 277 269 263 265 260 257 260 258 253 256 263 267 271 280 288 285 286 289 299 303 297 296 302 301 303 305 303 301 302 305 306 304
294 291 293 296 289 275 264 266 265 269 276 286 287 276 271 280 280 275 270 258 252 253 261 268 276 289 289 297 290 291 293 302 297 290 295 301 305 303 303 303 305 308 306
286 294 294 296 295 286 295 298 295 280 286 286 290 296 288 281 286 291 288 283 271 257 255 258 269 275 279 284 290 289 295 304 304 296 303 302 302 296 296 296 311 313 307
288 295 300 300 291 286 296 302 309 305 288 281 282 287 294 297 297 284 290 296 292 285 272 260 260 267 276 280 282 285 284 284 285 293 298 297 297 293 298 304 309 311 312
288 291 299 304 304 300 307 313 323 318 297 285 274 272 276 287 288 287 285 295 287 279 275 271 260 266 270 271 261 268 275 284 288 286 276 285 294 298 302 301 308 312 318
311 301 303 302 303 305 314 321 332 321 306 298 293 291 292 283 294 303 292 288 296 296 303 298 293 292 289 287 286 290 293 294 295 293 277 267 289 303 302 298 309 323 324
298 312 313 304 294 297 317 327 335 310 302 302 302 297 297 296 302 308 284 267 283 293 309 319 317 320 315 310 308 283 268 281 293 291 278 283 291 320 317 310 320 330 331